KD9DD-13 Weather Reports


Display with metric or nautical units.
time (UTC)temp
F
wind
direction
speed
MPH
gust
MPH
rain 1hr
in
rain 24hr
in
rain mn
in
humidity
%
barometer
mb
20260504081027 59 0.0 0.0 0.00 0.01 0.00 82 1007.5
20260504050017 61 335 3.0 3.0 0.00 0.01 0.00 77 1007.1
20260504045041 61 335 3.0 3.0 0.00 0.01 0.01 80 1007.1
20260504044025 62 0.0 0.0 0.00 0.01 0.01 75 1007.1
20260504043049 63 326 3.0 4.0 0.00 0.01 0.01 74 1007.1
20260504042036 64 338 3.0 5.0 0.00 0.01 0.01 69 1007.8
20260504041100 67 355 3.0 7.0 0.00 0.01 0.01 57 1007.7
20260504040024 68 333 3.0 5.0 0.00 0.01 0.01 55 1007.8
20260504035028 68 3 3.0 5.0 0.00 0.01 0.01 55 1007.9
20260504034032 68 331 4.0 5.0 0.00 0.01 0.01 55 1008.0
20260504033058 68 334 3.0 4.0 0.00 0.01 0.01 53 1008.0
20260504032022 69 338 3.0 4.0 0.00 0.01 0.01 52 1008.2
20260504031026 69 344 4.0 5.0 0.00 0.01 0.01 51 1008.2
20260504030031 69 352 4.0 7.0 0.00 0.01 0.01 52 1008.3
20260504025016 70 323 3.0 5.0 0.00 0.01 0.01 51 1008.1
20260504024021 70 329 3.0 5.0 0.00 0.01 0.01 51 1008.1
20260504023025 70 330 3.0 4.0 0.00 0.01 0.01 51 1008.2
20260504022023 70 350 3.0 4.0 0.00 0.01 0.01 52 1008.2
20260504021015 70 0.0 0.0 0.00 0.01 0.01 52 1008.0
20260504020040 70 340 1.0 3.0 0.00 0.01 0.01 50 1007.8
20260504015017 71 0.0 0.0 0.00 0.01 0.01 50 1007.8
20260504014016 71 23 0.0 3.0 0.00 0.01 0.01 49 1007.7
20260504013032 71 13 2.0 4.0 0.00 0.01 0.01 48 1007.7
20260504012018 71 14 2.0 5.0 0.00 0.01 0.01 47 1007.5
20260504011022 72 1 2.0 3.0 0.00 0.01 0.01 47 1007.5
20260504010027 72 47 2.0 4.0 0.00 0.01 0.01 46 1007.3
20260504005051 73 4 2.0 4.0 0.00 0.01 0.01 46 1007.4
20260504004017 73 360 3.0 4.0 0.00 0.01 0.01 44 1007.5
20260504003021 74 23 3.0 5.0 0.00 0.01 0.01 43 1007.5
20260504002025 74 349 2.0 5.0 0.00 0.01 0.01 42 1007.5
20260504001029 75 6 4.0 5.0 0.00 0.01 0.01 42 1007.7
20260504000035 75 328 3.0 5.0 0.00 0.01 0.01 40 1007.7
20260503235019 76 328 2.0 4.0 0.00 0.01 0.01 40 1007.5
20260503234023 76 5 4.0 6.0 0.00 0.01 0.01 38 1007.6
20260503233028 77 358 4.0 7.0 0.00 0.01 0.01 38 1007.8
20260503232032 77 7 4.0 6.0 0.00 0.01 0.01 37 1008.0
20260503231018 77 16 5.0 9.0 0.00 0.01 0.01 37 1007.8
20260503230022 77 357 4.0 8.0 0.00 0.01 0.01 37 1008.2
20260503225046 77 3 5.0 8.0 0.00 0.01 0.01 36 1008.2
20260503224030 78 334 4.0 8.0 0.00 0.01 0.01 36 1008.2
20260503223016 78 47 4.0 7.0 0.00 0.01 0.01 35 1008.3
20260503222020 79 24 4.0 6.0 0.00 0.01 0.01 35 1008.3
20260503221024 79 46 3.0 6.0 0.00 0.01 0.01 36 1008.3
20260503220028 78 352 6.0 8.0 0.00 0.01 0.01 37 1008.3
20260503215033 78 358 6.0 9.0 0.00 0.01 0.01 36 1008.8
20260503214018 77 335 7.0 9.0 0.00 0.01 0.01 37 1008.9
20260503213023 78 360 4.0 7.0 0.00 0.01 0.01 37 1009.0
20260503212027 77 6 7.0 9.0 0.00 0.01 0.01 36 1009.2
20260503211025 77 344 8.0 12.0 0.00 0.01 0.01 35 1009.3
20260503210017 77 341 8.0 12.0 0.00 0.01 0.01 36 1009.2
20260503205021 77 9 6.0 9.0 0.00 0.01 0.01 37 1009.5
20260503204019 77 23 7.0 9.0 0.00 0.01 0.01 36 1009.7
20260503203018 76 13 7.0 9.0 0.00 0.01 0.01 37 1009.9
20260503202016 76 344 8.0 13.0 0.00 0.01 0.01 36 1010.3
20260503201020 76 343 7.0 9.0 0.00 0.01 0.01 36 1010.6
20260503200024 75 26 7.0 9.0 0.00 0.01 0.01 36 1010.9
20260503195048 74 351 9.0 13.0 0.00 0.01 0.01 37 1011.1
20260503194032 74 18 8.0 9.0 0.00 0.01 0.01 37 1011.3
20260503193018 75 338 7.0 9.0 0.00 0.01 0.01 39 1011.5
20260503192023 73 350 7.0 9.0 0.00 0.01 0.01 39 1011.9
20260503191027 73 336 7.0 9.0 0.00 0.01 0.01 39 1012.0
20260503190031 73 338 8.0 9.0 0.00 0.01 0.01 38 1012.4
20260503185017 73 341 7.0 9.0 0.00 0.01 0.01 39 1012.6
20260503184021 73 344 7.0 10.0 0.01 0.01 0.01 39 1012.8
20260503183026 73 27 6.0 7.0 0.01 0.01 0.01 39 1012.9
20260503182030 73 18 6.0 10.0 0.01 0.01 0.01 38 1013.5
20260503181035 71 353 8.0 12.0 0.01 0.01 0.01 39 1014.0
20260503180020 71 344 7.0 10.0 0.01 0.01 0.01 40 1014.4
20260503175024 70 331 7.0 9.0 0.01 0.01 0.01 41 1014.8
20260503174028 71 248 7.0 9.0 0.00 0.00 0.00 41 1014.9
20260503173033 71 0 5.0 6.0 0.00 0.00 0.00 43 1014.9
20260503172039 70 0 5.0 6.0 0.00 0.00 0.00 44 1014.9
20260503171023 69 9 9.0 12.0 0.00 0.00 0.00 44 1015.1
20260503131015 52 331 5.0 8.0 0.00 0.00 0.00 73 1018.1